sat.trackr.live / text

‹ back to catalog

HIBARI

NORAD 49400 · 2021-102F

PAYLOAD ACTIVE UNKNOWN

§ Identity

Operator
Country
JPN
Launch date
2021-11-09
Launch site
KSCUT
Launch vehicle
Mass (kg)
RCS (m²)

External: N2YO · Heavens-Above · Gunter

§ Orbital elements

Epoch: 2026-05-25T01:43:48.931968Z

Period
94.04 min
Inclination
97.3257°
Eccentricity
0.0009742
Mean motion
15.31191270 rev/d
Perigee alt
465.6 km
Apogee alt
478.9 km
Semi-major
6,850.4 km
B*
3.2866e-4
RAAN
191.2457°
Arg perigee
283.3371°
Mean anomaly
76.6784°
Rev number
25,065

§ Raw data

HIBARI1 49400U 21102F   26145.07209412  .00009842  00000+0  32866-3 0  99962 49400  97.3257 191.2457 0009742 283.3371  76.6784 15.31191270250656

JSON: /api/v1/satellites/49400 · /tle

For live sub-satellite position, see the globe view (requires WebGL).

§ Visibility from observer

Set your observer location to see the next 7 days of passes ≥ 10°. The values pass through the URL so the page stays shareable.

No JS? Fill the form by hand. The geolocation button needs JavaScript.

§ Radio — SatNOGS DB

ModeDescriptionDownlinkUplink
GMSK Mode S 2.285 GHz

1 transmitter · refreshed weekly from db.satnogs.org